Location: *
(49.0044°N, 9.5056°E)
Time: 08:54:17
(UTC+00:00)

Cosmos 614 Rocket - Pass Details

Date: 22 September 2019
Orbit: 733 x 764 km, 74.1° (Epoch: 17 October)

Event Time Altitude Azimuth Distance (km) Brightness Sun altitude
Rises 18:39:49 0° 334° (NNW) 3,238 7.9 -13.6°
Reaches altitude 10° 18:42:13 10° 331° (NNW) 2,305 7.1 -14.0°
Maximum altitude 18:47:23 64° 252° (WSW) 843 4.4 -14.8°
Drops below altitude 10° 18:52:28 10° 172° (S) 2,272 6.2 -15.6°
Enters shadow 18:54:09 - 169° (S) 2,920 6.7 -15.8°
